Location: Highridge
(54.0333°N, 114.1333°W)
Time: 13:39:50
(UTC+00:00)

Oscar 19 - Pass Details

Date: 04 December 2023
Orbit: 771 x 789 km, 98.9° (Epoch: 01 March)

Event Time Altitude Azimuth Distance (km) Brightness Sun altitude
Rises 12:31:20 0° 17° (NNE) 3,272 14.0 -25.9°
Reaches altitude 10° 12:33:40 10° 19° (NNE) 2,343 13.3 -25.5°
Maximum altitude 12:38:51 77° 106° (ESE) 807 10.7 -24.8°
Drops below altitude 10° 12:44:01 10° 192° (SSW) 2,338 13.0 -24.0°
Sets 12:46:20 0° 194° (SSW) 3,264 13.8 -23.7°
